[TLELIST] Archives

 

[list_settings.list_name] Current TLEs

March 28th 2022 PST

HST 1 20580U 90037B 22086.81768980 .00002190 00000-0 11990-3 0 9994 2 20580 28.4710 349.5842 0002489 234.1344 179.0820 15.10174843553866 ISS (ZARYA) 1 25544U 98067A 22087.02223517 .00008468 00000-0 15842-3 0 9990 2 25544 51.6446 18.5860 0004032 319.2109 144.5627 15.49589185332596 CXO 1 25867U 99040B 22088.71518841 .00000879 00000-0 00000-0 0 9999 2 25867 47.5784 240.6185 8723262 231.1962 0.3337 0.37809904 11508 ____________________________________________________________________ These 2-Line ...Continue Reading

[list_settings.list_name] Current TLEs

March 27th 2022 PST

HST 1 20580U 90037B 22086.17534698 .00001989 00000-0 10790-3 0 9992 2 20580 28.4711 353.8377 0002506 227.0093 287.1044 15.10171373554034 ISS (ZARYA) 1 25544U 98067A 22086.31915465 .00007574 00000-0 14264-3 0 9995 2 25544 51.6447 22.0660 0003975 316.5827 182.4652 15.49574480332486 CXO 1 25867U 99040B 22088.71476552 .00000879 00000-0 00000+0 0 9990 2 25867 47.5783 240.6184 8723275 231.1963 0.2757 0.37808786 22651 ____________________________________________________________________ These 2-Line ...Continue Reading

[list_settings.list_name] Current TLEs

March 26th 2022 PST

HST 1 20580U 90037B 22085.09440748 .00002077 00000-0 11317-3 0 9999 2 20580 28.4712 0.9954 0002542 215.1350 170.6782 15.10168061553865 ISS (ZARYA) 1 25544U 98067A 22085.22492975 .00007577 00000-0 14277-3 0 9997 2 25544 51.6448 27.4831 0003987 313.2897 197.6636 15.49556948332311 CXO 1 25867U 99040B 22086.07218771 .00000953 00000-0 00000-0 0 9998 2 25867 47.6302 240.7609 8719356 231.1397 0.4703 0.37812706 11498 ____________________________________________________________________ These 2-Line ...Continue Reading

[list_settings.list_name] Current TLEs

March 25th 2022 PST

HST 1 20580U 90037B 22083.53339881 .00001892 00000-0 10215-3 0 9991 2 20580 28.4712 11.3316 0002592 197.9531 324.4615 15.10161846553369 ISS (ZARYA) 1 25544U 98067A 22084.12316441 .00006730 00000-0 12782-3 0 9997 2 25544 51.6446 32.9367 0004076 310.4490 170.3824 15.49536326332148 CXO 1 25867U 99040B 22086.07218771 .00000953 00000-0 00000-0 0 9998 2 25867 47.6302 240.7609 8719356 231.1397 0.4703 0.37812706 11498 ____________________________________________________________________ These 2-Line ...Continue Reading

[list_settings.list_name] Current TLEs

March 24th 2022 PST

HST 1 20580U 90037B 22083.19354094 .00001863 00000-0 10042-3 0 9992 2 20580 28.4712 13.5820 0002605 194.2110 276.8733 15.10160505553576 ISS (ZARYA) 1 25544U 98067A 22083.35224310 .00006091 00000-0 11651-3 0 9998 2 25544 51.6447 36.7529 0003935 307.7750 189.7706 15.49522434332027 CXO 1 25867U 99040B 22083.42896185 .00000953 00000-0 00000+0 0 9994 2 25867 47.7106 240.9308 8715242 231.0696 0.5734 0.37808387 22633 ____________________________________________________________________ These 2-Line ...Continue Reading

[list_settings.list_name] Current TLEs

March 23rd 2022 PST

HST 1 20580U 90037B 22081.55258502 .00001714 00000-0 91502-4 0 9993 2 20580 28.4711 24.4478 0002650 176.6504 355.5743 15.10154599553062 ISS (ZARYA) 1 25544U 98067A 22082.25677686 .00005508 00000-0 10622-3 0 9993 2 25544 51.6439 42.1755 0004103 303.3368 199.3773 15.49505568331855 CXO 1 25867U 99040B 22083.42896185 .00000953 00000-0 00000+0 0 9994 2 25867 47.7106 240.9308 8715242 231.0696 0.5734 0.37808387 22633 ____________________________________________________________________ These 2-Line ...Continue Reading

[list_settings.list_name] Current TLEs

March 22nd 2022 PST

HST 1 20580U 90037B 22080.55997061 .00001634 00000-0 86754-4 0 9996 2 20580 28.4710 31.0206 0002684 166.0454 359.0769 15.10151077552916 ISS (ZARYA) 1 25544U 98067A 22081.40874163 .00005749 00000-0 11053-3 0 9994 2 25544 51.6440 46.3743 0004005 299.8554 149.2225 15.49495919331727 CXO 1 25867U 99040B 22083.42896185 .00000953 00000-0 00000+0 0 9994 2 25867 47.7106 240.9308 8715242 231.0696 0.5734 0.37808387 22633 ____________________________________________________________________ These 2-Line ...Continue Reading

[list_settings.list_name] Current TLEs

March 21st 2022 PST

HST 1 20580U 90037B 22080.22444913 .00001661 00000-0 88358-4 0 9995 2 20580 28.4710 33.2423 0002700 162.5166 334.9122 15.10150260553134 ISS (ZARYA) 1 25544U 98067A 22080.38444361 .00003372 00000-0 68227-4 0 9999 2 25544 51.6437 51.4452 0004091 296.4010 195.1971 15.49477553331566 CXO 1 25867U 99040B 22080.78473853 .00000987 00000-0 00000-0 0 9991 2 25867 47.7848 241.0817 8712416 231.0227 0.5252 0.37810437 11477 ____________________________________________________________________ These 2-Line ...Continue Reading

[list_settings.list_name] Current TLEs

March 20th 2022 PST

HST 1 20580U 90037B 22078.64435113 .00001731 00000-0 92592-4 0 9993 2 20580 28.4709 43.7051 0002740 146.1475 23.9878 15.10145426552624 ISS (ZARYA) 1 25544U 98067A 22079.20295220 .00003658 00000-0 73357-4 0 9993 2 25544 51.6432 57.2936 0004105 290.9967 85.7686 15.49468859331384 CXO 1 25867U 99040B 22080.78473853 .00000987 00000-0 00000-0 0 9991 2 25867 47.7848 241.0817 8712416 231.0227 0.5252 0.37810437 11477 ____________________________________________________________________ These 2-Line ...Continue Reading

[list_settings.list_name] Current TLEs

March 19th 2022 PST

HST 1 20580U 90037B 22077.38140368 .00001902 00000-0 10278-3 0 9998 2 20580 28.4707 52.0679 0002782 133.4012 357.0796 15.10141767552436 ISS (ZARYA) 1 25544U 98067A 22078.45139159 .00004998 00000-0 97246-4 0 9998 2 25544 51.6428 61.0139 0004102 288.4788 213.2679 15.49468020331264 CXO 1 25867U 99040B 22078.14093854 .00001067 00000-0 00000-0 0 9997 2 25867 47.8791 241.2785 8712300 230.9353 0.5805 0.37816697 11457 ____________________________________________________________________ These 2-Line ...Continue Reading
  • This mailing list is a public mailing list - anyone may join or leave, at any time.
  • This mailing list is announce-only.

International Space Station (ISS) / Hubble Space Telescope (HST) / Chandra X-Ray Observatory Orbital Data via EMAIL

Privacy Policy:

Private list